NIMBUS 2 DEB, 28977

Orbit data source: Space-Track

NIMBUS 2 DEB, 28977 is space debris in SSO originally from a launch on Sun, 15 May 1966 UTC launched from the Air Force Western Test Range (AFWTR). Debris objects in space refer to the collection of defunct objects orbiting the Earth. Examples of debris include non-operational satellites, rocket bodies, and fragments generated from explosions, collisions, or faulty payload assembly.

Loading next visibility...
Identifier
28977, 1966-040AN
Orbit
SSO
Country
Flag of USUS
Related business
Manufacturer
Unknown
Mission
Spacecraft
Bus & Motor
Unknown
Mass
Unknown
Launch date (UTC)
1966-05-15 (59 years ago)
Launch vehicle
Unknown
Launch site
Air Force Western Test Range (AFWTR)
Object type
Payload
Rocket body
Debris
Shape & HBR
Unknown shape, 0.1 m
Radar Cross Section
Small (<0.1 m²)

Expand to show TLE details & history
Last TLE update: 2 days ago

TLE from 2 days ago
0 NIMBUS 2 DEB
1 28977U 66040AN  25305.61463775  .00002236  00000-0  34232-2 0  9992
2 28977 100.4705 250.4495 0049716 256.6862 288.1203 13.52552558982074
Epoch: 2025-11-01T14:45Z
TLE epoch observation values (Epoch: 2025-11-01T14:45:04.701Z)
Latitude
-4.32954°
Longitude
167.24018°
Altitude
1,054.968 km
Speed
7.33 km/s
True Right ascension
04h 38m 36s
True Declination
-4° 18' 17"
Sunlit
Object was in full shadow at epoch
Visualization orbit readout
Latitude
Unknown
Longitude
Unknown
Altitude
Unknown
Speed
Unknown
Apparent Right ascension
Unknown
Apparent Declination
Unknown
Sunlit
N/A
Visualization observer readout
Local Sidereal Time
02:44:52
Azimuth
Unknown
Elevation
Unknown
Doppler factor
Unknown
Orbital elements
Apogee altitude
1,097.201 km
Perigee altitude
1,023.24 km
Semi-major axis
7,438.358 km
Eccentricity
0.00497
Inclination
100.4705°
RAAN
250.4495°
Arg. of periapsis
256.6862°
True anomaly
287.57781°
Mean anomaly
288.1203°
Eccentric anomaly
287.84916°
Mean motion
3.3832 °/min
Orbital period
106.41 mins
BSTAR
0.0034232
Loading maneuver chart data...
Computing Atmospheric mass density...
Loading historical data...
Loading historical data...
Loading historical data...
Loading historical data...
Loading historical data...
Loading historical data...
Loading historical data...

Documentation

Showing up to 5 results
|